TimeEST,TemperatureF,Dew PointF,Humidity,Sea Level PressureIn,VisibilityMPH,Wind Direction,Wind SpeedMPH,Gust SpeedMPH,PrecipitationIn,Events,Conditions,WindDirDegrees,DateUTC
12:53 AM,8.1,3.9,83,30.38,5.0,Calm,Calm,-,N/A,,Clear,0,2014-02-11 05:53:00
1:53 AM,6.1,1.9,83,30.38,6.0,Calm,Calm,-,N/A,,Clear,0,2014-02-11 06:53:00
2:53 AM,6.1,1.9,83,30.38,6.0,Calm,Calm,-,N/A,,Clear,0,2014-02-11 07:53:00
3:53 AM,5.0,1.0,84,30.39,6.0,Calm,Calm,-,N/A,,Mostly Cloudy,0,2014-02-11 08:53:00
4:53 AM,3.0,-0.0,87,30.40,7.0,Calm,Calm,-,N/A,,Overcast,0,2014-02-11 09:53:00
5:53 AM,3.9,-0.0,84,30.41,6.0,Calm,Calm,-,N/A,,Overcast,0,2014-02-11 10:53:00
6:16 AM,3.2,-0.4,85,30.34,6.0,Calm,Calm,-,N/A,,Overcast,0,2014-02-11 11:16:00
6:53 AM,3.9,-0.0,84,30.43,6.0,Calm,Calm,-,N/A,,Overcast,0,2014-02-11 11:53:00
7:53 AM,3.9,1.0,88,30.46,4.0,Calm,Calm,-,N/A,,Mostly Cloudy,0,2014-02-11 12:53:00
8:07 AM,3.2,1.4,92,30.37,7.0,Calm,Calm,-,N/A,,Scattered Clouds,0,2014-02-11 13:07:00
8:53 AM,8.1,3.9,83,30.47,7.0,Calm,Calm,-,N/A,,Clear,0,2014-02-11 13:53:00
9:53 AM,12.9,8.1,81,30.47,6.0,Calm,Calm,-,N/A,,Haze,0,2014-02-11 14:53:00
10:53 AM,17.1,9.0,71,30.46,6.0,Calm,Calm,-,N/A,,Haze,0,2014-02-11 15:53:00
11:53 AM,19.0,7.0,59,30.46,10.0,North,3.5,-,N/A,,Clear,10,2014-02-11 16:53:00
12:53 PM,21.0,7.0,55,30.44,10.0,Calm,Calm,-,N/A,,Clear,0,2014-02-11 17:53:00
1:53 PM,21.9,5.0,48,30.43,10.0,Variable,4.6,-,N/A,,Partly Cloudy,0,2014-02-11 18:53:00
2:53 PM,23.0,5.0,46,30.42,10.0,North,4.6,-,N/A,,Clear,10,2014-02-11 19:53:00
3:53 PM,24.1,6.1,46,30.42,10.0,NNW,6.9,-,N/A,,Clear,330,2014-02-11 20:53:00
4:53 PM,21.9,5.0,48,30.43,10.0,North,4.6,-,N/A,,Clear,10,2014-02-11 21:53:00
5:53 PM,19.0,3.9,52,30.45,10.0,NE,4.6,-,N/A,,Clear,40,2014-02-11 22:53:00
6:53 PM,18.0,3.9,54,30.47,10.0,NE,3.5,-,N/A,,Clear,50,2014-02-11 23:53:00
7:53 PM,17.1,5.0,59,30.48,10.0,Calm,Calm,-,N/A,,Clear,0,2014-02-12 00:53:00
8:53 PM,16.0,5.0,62,30.48,10.0,Calm,Calm,-,N/A,,Clear,0,2014-02-12 01:53:00
9:53 PM,12.0,5.0,73,30.48,10.0,Calm,Calm,-,N/A,,Clear,0,2014-02-12 02:53:00
10:53 PM,10.9,5.0,77,30.47,10.0,Calm,Calm,-,N/A,,Clear,0,2014-02-12 03:53:00
11:53 PM,9.0,5.0,84,30.47,8.0,Calm,Calm,-,N/A,,Clear,0,2014-02-12 04:53:00